Location: The Jewett Observatory
(46.7288°N, 117.1525°W)
Time: 02:23:59
(UTC-07:00)

Meteor 1-28 Rocket - Visible Passes

Search period start: 29 March 2015 00:00
Search period end: 08 April 2015 00:00
Orbit: 512 x 530 km, 97.2° (Epoch: 28 March)

Date Brightness Start Highest point End Pass type
(mag) Time Alt. Az. Time Alt. Az. Time Alt. Az.
29 Mar 4.3 20:02:14 10° NE 20:05:26 25° E 20:08:38 10° SSE visible
29 Mar 5.3 21:36:18 10° N 21:39:39 28° WNW 21:42:55 10° SW visible
30 Mar 4.7 19:49:29 10° NE 19:52:09 18° E 19:54:53 10° SE visible
30 Mar 4.7 21:22:57 10° N 21:26:33 38° WNW 21:30:06 10° SW visible
31 Mar 4.0 21:09:40 10° N 21:13:27 53° WNW 21:17:09 10° SSW visible
01 Apr 3.3 20:56:27 10° N 21:00:18 76° WNW 21:04:06 10° SSW visible
02 Apr 3.1 20:43:16 10° NNE 20:47:08 76° E 20:50:56 10° S visible
02 Apr 6.6 22:19:39 10° NW 22:20:49 11° WNW 22:21:49 10° WNW visible
03 Apr 3.3 20:30:10 10° NNE 20:33:56 52° E 20:37:39 10° S visible
03 Apr 6.3 22:05:33 10° NNW 22:07:46 15° WNW 22:09:52 10° W visible
04 Apr 3.8 20:17:07 10° NNE 20:20:41 37° E 20:24:15 10° SSE visible
04 Apr 5.9 21:51:52 10° NNW 21:54:42 19° WNW 21:57:26 10° WSW visible
05 Apr 4.2 20:04:10 10° NE 20:07:25 26° E 20:10:41 10° SSE visible
05 Apr 5.5 21:38:21 10° N 21:41:35 26° WNW 21:44:45 10° SW visible
06 Apr 4.9 21:24:56 10° N 21:28:28 35° WNW 21:31:56 10° SW visible
07 Apr 4.2 21:11:35 10° N 21:15:18 49° WNW 21:18:58 10° SSW visible
